STARLINK-36693

Last updated on Sat Mar 14 2026 00:02:07 GMT+0000 (Coordinated Universal Time)

1 67742U 26026X 26072.58334491 -.01796418 00000+0 -49532-1 0 9997 2 67742 97.2858 127.1830 0001350 82.3834 354.3631 15.40268603 6079

Satellite not in orbit